Location: Prague
(50.0830°N, 14.4670°E)
Time: 09:56:09
(UTC+01:00)

Oscar 11 - Pass Details

Date: 04 December 2021
Orbit: 611 x 625 km, 97.6° (Epoch: 26 January)

Event Time Altitude Azimuth Distance (km) Brightness Sun altitude
Rises 16:53:01 0° 180° (S) 2,894 10.9 -8.0°
Reaches altitude 10° 16:55:16 10° 186° (S) 1,994 10.1 -8.3°
Maximum altitude 16:59:28 49° 261° (W) 816 8.2 -8.9°
Drops below altitude 10° 17:03:44 10° 337° (NNW) 2,012 9.7 -9.6°
Sets 17:06:00 0° 343° (NNW) 2,924 10.5 -9.9°
